| time (UTC) | temp F | wind direction | speed MPH | gust MPH | rain 1hr in | rain 24hr in | rain mn in | humidity % | barometer mb |
| 20260507040046 | 53 | 125 | 0.0 | 0.0 | 0.00 | 0.00 | 0.00 | 74 | 1018.8 |
| 20260507034554 | 54 | 125 | 0.0 | 0.0 | 0.00 | 0.00 | 0.00 | 73 | 1019.2 |
| 20260507033045 | 55 | 125 | 0.0 | 0.0 | 0.00 | 0.00 | 0.00 | 71 | 1019.1 |
| 20260507031600 | 55 | 125 | 0.0 | 0.0 | 0.00 | 0.00 | 0.00 | 70 | 1019.0 |
| 20260507030050 | 56 | 125 | 0.0 | 1.0 | 0.00 | 0.00 | 0.00 | 68 | 1018.6 |
| 20260507024543 | 57 | 125 | 0.0 | 1.0 | 0.00 | 0.00 | 0.00 | 68 | 1018.5 |
| 20260507023038 | 57 | 125 | 0.0 | 1.0 | 0.00 | 0.00 | 0.00 | 67 | 1018.5 |
| 20260507021539 | 58 | 125 | 0.0 | 2.0 | 0.00 | 0.00 | 0.00 | 66 | 1018.3 |
| 20260507020038 | 58 | 125 | 0.0 | 2.0 | 0.00 | 0.00 | 0.00 | 64 | 1018.0 |
| 20260507014547 | 59 | 126 | 0.0 | 3.0 | 0.00 | 0.00 | 0.00 | 63 | 1017.6 |
| 20260507013037 | 60 | 132 | 0.0 | 3.0 | 0.00 | 0.00 | 0.00 | 62 | 1017.4 |
| 20260507011538 | 60 | 128 | 1.0 | 4.0 | 0.00 | 0.00 | 0.00 | 61 | 1017.4 |
| 20260507010040 | 61 | 119 | 0.0 | 4.0 | 0.00 | 0.00 | 0.00 | 60 | 1017.4 |
| 20260507004534 | 61 | 123 | 1.0 | 3.0 | 0.00 | 0.00 | 0.00 | 59 | 1017.3 |
| 20260507003035 | 61 | 117 | 0.0 | 2.0 | 0.00 | 0.00 | 0.00 | 59 | 1017.2 |
| 20260507001532 | 61 | 360 | 0.0 | 3.0 | 0.00 | 0.00 | 0.00 | 58 | 1017.0 |
| 20260507000132 | 62 | 360 | 2.0 | 5.0 | 0.00 | 0.00 | 0.00 | 57 | 1017.0 |
| 20260506234531 | 62 | 129 | 1.0 | 4.0 | 0.00 | 0.00 | 0.00 | 57 | 1016.7 |
| 20260506233033 | 62 | 128 | 1.0 | 5.0 | 0.00 | 0.00 | 0.00 | 57 | 1016.7 |
| 20260506231529 | 63 | 107 | 1.0 | 6.0 | 0.00 | 0.00 | 0.00 | 56 | 1016.6 |
| 20260506230028 | 62 | 28 | 1.0 | 7.0 | 0.00 | 0.00 | 0.00 | 58 | 1016.5 |
| 20260506224527 | 62 | 86 | 1.0 | 5.0 | 0.00 | 0.00 | 0.00 | 58 | 1016.5 |
| 20260506223026 | 62 | 35 | 2.0 | 9.0 | 0.00 | 0.00 | 0.00 | 58 | 1016.5 |
| 20260506221526 | 62 | 69 | 2.0 | 8.0 | 0.00 | 0.00 | 0.00 | 57 | 1016.3 |
| 20260506220026 | 63 | 101 | 2.0 | 9.0 | 0.00 | 0.00 | 0.00 | 56 | 1016.3 |
| 20260506214525 | 63 | 336 | 2.0 | 8.0 | 0.00 | 0.00 | 0.00 | 55 | 1016.3 |
| 20260506213024 | 64 | 216 | 2.0 | 5.0 | 0.00 | 0.00 | 0.00 | 57 | 1016.3 |
| 20260506211522 | 63 | 51 | 2.0 | 9.0 | 0.00 | 0.00 | 0.00 | 57 | 1016.3 |
| 20260506210023 | 63 | 43 | 3.0 | 9.0 | 0.00 | 0.00 | 0.00 | 55 | 1016.2 |
| 20260506204524 | 63 | 26 | 3.0 | 11.0 | 0.00 | 0.00 | 0.00 | 55 | 1016.4 |
| 20260506203021 | 63 | 15 | 3.0 | 10.0 | 0.00 | 0.00 | 0.00 | 55 | 1016.4 |
| 20260506201521 | 63 | 15 | 2.0 | 7.0 | 0.00 | 0.00 | 0.00 | 57 | 1016.5 |
| 20260506200019 | 63 | 34 | 1.0 | 10.0 | 0.00 | 0.00 | 0.00 | 56 | 1016.5 |
| 20260506194519 | 63 | 132 | 2.0 | 9.0 | 0.00 | 0.00 | 0.00 | 55 | 1016.5 |
| 20260506193016 | 62 | 42 | 2.0 | 7.0 | 0.00 | 0.00 | 0.00 | 57 | 1016.5 |
| 20260506191514 | 62 | 80 | 2.0 | 8.0 | 0.00 | 0.00 | 0.00 | 57 | 1016.7 |
| 20260506190013 | 62 | 5 | 2.0 | 7.0 | 0.00 | 0.00 | 0.00 | 57 | 1016.7 |
| 20260506184510 | 61 | 123 | 2.0 | 9.0 | 0.00 | 0.00 | 0.00 | 57 | 1016.8 |
| 20260506183008 | 60 | 104 | 2.0 | 8.0 | 0.00 | 0.00 | 0.00 | 60 | 1017.3 |
| 20260506181505 | 60 | 82 | 1.0 | 7.0 | 0.00 | 0.00 | 0.00 | 60 | 1017.7 |
| 20260506180005 | 59 | 146 | 3.0 | 10.0 | 0.00 | 0.00 | 0.00 | 62 | 1017.9 |
| 20260506174504 | 59 | 136 | 2.0 | 7.0 | 0.00 | 0.00 | 0.00 | 63 | 1018.0 |
| 20260506173002 | 59 | 344 | 3.0 | 12.0 | 0.00 | 0.00 | 0.00 | 62 | 1018.3 |
| 20260506171501 | 57 | 133 | 2.0 | 8.0 | 0.00 | 0.00 | 0.00 | 63 | 1018.1 |
| 20260506170000 | 59 | 59 | 3.0 | 8.0 | 0.00 | 0.00 | 0.00 | 61 | 1018.3 |
| 20260506164606 | 56 | 35 | 3.0 | 7.0 | 0.00 | 0.00 | 0.00 | 64 | 1018.3 |
| 20260506163114 | 55 | 103 | 2.0 | 9.0 | 0.00 | 0.00 | 0.00 | 66 | 1018.5 |
| 20260506161601 | 55 | 13 | 3.0 | 7.0 | 0.00 | 0.00 | 0.00 | 67 | 1018.7 |
| 20260506160052 | 54 | 127 | 2.0 | 10.0 | 0.00 | 0.00 | 0.00 | 68 | 1018.6 |
| 20260506154607 | 53 | 178 | 2.0 | 10.0 | 0.00 | 0.00 | 0.00 | 69 | 1018.4 |
| 20260506153054 | 53 | 34 | 3.0 | 8.0 | 0.00 | 0.00 | 0.00 | 69 | 1018.2 |
| 20260506151547 | 53 | 360 | 2.0 | 9.0 | 0.00 | 0.00 | 0.00 | 70 | 1017.9 |
| 20260506150041 | 52 | 360 | 3.0 | 8.0 | 0.00 | 0.00 | 0.00 | 73 | 1017.8 |
| 20260506144537 | 50 | 18 | 2.0 | 10.0 | 0.00 | 0.00 | 0.00 | 76 | 1017.0 |
| 20260506143046 | 50 | 28 | 1.0 | 8.0 | 0.00 | 0.00 | 0.00 | 78 | 1016.7 |
| 20260506141536 | 50 | 26 | 1.0 | 10.0 | 0.00 | 0.00 | 0.00 | 79 | 1016.8 |
| 20260506140031 | 49 | 107 | 2.0 | 9.0 | 0.00 | 0.00 | 0.00 | 79 | 1017.0 |
| 20260506134530 | 49 | 341 | 2.0 | 9.0 | 0.00 | 0.00 | 0.00 | 80 | 1017.0 |
| 20260506133027 | 48 | 69 | 0.0 | 8.0 | 0.00 | 0.00 | 0.00 | 80 | 1017.2 |
| 20260506131526 | 48 | 32 | 0.0 | 10.0 | 0.00 | 0.00 | 0.00 | 80 | 1017.1 |
| 20260506130026 | 48 | 29 | 2.0 | 8.0 | 0.00 | 0.00 | 0.00 | 80 | 1016.6 |
| 20260506124518 | 48 | 40 | 1.0 | 6.0 | 0.00 | 0.00 | 0.00 | 79 | 1016.4 |
| 20260506123016 | 48 | 65 | 2.0 | 8.0 | 0.00 | 0.00 | 0.00 | 79 | 1015.8 |
| 20260506121513 | 48 | 286 | 1.0 | 5.0 | 0.00 | 0.00 | 0.00 | 79 | 1015.7 |
| 20260506120013 | 48 | 39 | 0.0 | 6.0 | 0.00 | 0.00 | 0.00 | 78 | 1015.8 |
| 20260506114511 | 48 | 30 | 1.0 | 6.0 | 0.00 | 0.00 | 0.00 | 78 | 1015.4 |
| 20260506113008 | 48 | 11 | 0.0 | 6.0 | 0.00 | 0.00 | 0.00 | 77 | 1015.0 |
| 20260506111508 | 48 | 31 | 2.0 | 9.0 | 0.00 | 0.00 | 0.00 | 77 | 1015.2 |
| 20260506110006 | 48 | 28 | 1.0 | 8.0 | 0.00 | 0.00 | 0.00 | 77 | 1015.1 |
| 20260506104503 | 48 | 25 | 2.0 | 7.0 | 0.00 | 0.00 | 0.00 | 76 | 1015.4 |
| 20260506103003 | 48 | 60 | 1.0 | 6.0 | 0.00 | 0.00 | 0.00 | 76 | 1015.1 |
| 20260506101502 | 48 | 28 | 2.0 | 8.0 | 0.00 | 0.00 | 0.00 | 75 | 1015.1 |
| 20260506100100 | 48 | 35 | 0.0 | 5.0 | 0.00 | 0.00 | 0.00 | 75 | 1015.0 |
| 20260506094622 | 49 | 5 | 2.0 | 10.0 | 0.00 | 0.00 | 0.00 | 75 | 1014.9 |
| 20260506093057 | 49 | 22 | 2.0 | 8.0 | 0.00 | 0.00 | 0.00 | 75 | 1014.8 |
| 20260506091554 | 49 | 31 | 2.0 | 10.0 | 0.00 | 0.00 | 0.00 | 75 | 1014.5 |
| 20260506090051 | 49 | 31 | 1.0 | 6.0 | 0.00 | 0.00 | 0.00 | 75 | 1014.1 |
| 20260506084550 | 49 | 329 | 2.0 | 9.0 | 0.00 | 0.00 | 0.00 | 75 | 1014.2 |
| 20260506083049 | 49 | 355 | 1.0 | 8.0 | 0.00 | 0.00 | 0.00 | 75 | 1013.9 |
| 20260506081546 | 49 | 21 | 2.0 | 8.0 | 0.00 | 0.00 | 0.00 | 75 | 1013.1 |
| 20260506073045 | 49 | 36 | 1.0 | 8.0 | 0.00 | 0.00 | 0.00 | 74 | 1012.0 |
| 20260506071539 | 49 | 40 | 2.0 | 7.0 | 0.00 | 0.00 | 0.00 | 74 | 1012.4 |
| 20260506061536 | 49 | 87 | 0.0 | 4.0 | 0.00 | 0.00 | 0.00 | 76 | 1012.7 |
| 20260506044533 | 49 | 41 | 0.0 | 4.0 | 0.00 | 0.00 | 0.00 | 82 | 1012.6 |
| 20260506043022 | 49 | 34 | 1.0 | 6.0 | 0.00 | 0.00 | 0.00 | 81 | 1012.5 |
| 20260506041520 | 49 | 74 | 1.0 | 9.0 | 0.00 | 0.00 | 0.00 | 81 | 1012.5 |